Location: The D'Auria's Ocala Star Observatory
(29.0276°N, 82.1742°W)
Time: 17:47:29
(UTC-04:00)

Okean 3 Rocket - Visible Passes

Search period start: 31 August 2015 00:00
Search period end: 10 September 2015 00:00
Orbit: 616 x 646 km, 82.5° (Epoch: 30 August)

Date Brightness Start Highest point End Pass type
(mag) Time Alt. Az. Time Alt. Az. Time Alt. Az.
31 Aug 5.8 21:09:25 10° NE 21:09:51 11° NE 21:09:51 11° NE visible
31 Aug 6.2 22:45:59 10° NNW 22:47:16 17° NW 22:47:16 17° NW visible
01 Sep 5.1 21:29:03 10° NNE 21:31:05 22° NE 21:31:05 22° NE visible
01 Sep 6.8 23:08:21 10° NW 23:08:30 10° WNW 23:08:30 10° WNW visible
02 Sep 4.6 21:49:38 10° N 21:52:20 37° N 21:52:20 37° N visible
03 Sep 5.1 22:10:48 10° NNW 22:13:40 34° NW 22:13:40 34° NW visible
04 Sep 4.8 20:54:31 10° NNE 20:57:37 22° ENE 20:57:37 22° ENE visible
04 Sep 6.0 22:32:38 10° NW 22:35:03 19° WNW 22:35:03 19° WNW visible
05 Sep 3.7 21:14:48 10° N 21:19:04 50° E 21:19:04 50° E visible
06 Sep 3.8 21:35:44 10° NNW 21:40:05 67° W 21:40:35 61° SW visible
07 Sep 5.2 20:20:13 10° NE 20:22:49 16° ENE 20:24:46 13° ESE visible
07 Sep 5.4 21:57:14 10° NNW 22:01:01 28° W 22:02:13 24° WSW visible
08 Sep 4.1 20:40:04 10° NNE 20:44:04 35° E 20:46:31 20° SE visible
08 Sep 6.5 22:19:55 10° WNW 22:21:54 13° W 22:23:39 10° WSW visible
09 Sep 3.4 21:00:45 10° N 21:05:08 84° E 21:08:26 17° S visible
